Location: Unspecified
(0.0000°N, 0.0000°E)
Time: 23:08:01
(UTC+00:00)

Tiangong 2 - Pass Details

Date: 22 April 2018
Orbit: 381 x 388 km, 42.8° (Epoch: 26 April)

Event Time Altitude Azimuth Distance (km) Brightness Sun altitude
Rises 18:45:21 0° 315° (NW) 2,240 6.0 -11.4°
Reaches altitude 10° 18:47:25 10° 315° (NW) 1,389 4.8 -11.9°
Maximum altitude 18:50:33 88° 223° (SW) 383 1.0 -12.7°
Enters shadow 18:52:33 20° 136° (SE) 937 2.5 -13.2°
